User: anonymous   Login
Location: Unspecified
(0.0000°N, 0.0000°E)
Time: 05:47:34
(UTC+00:00)
Language:

Resurs 1-4 - Orbit

View from above orbital plane
View from above orbital plane
View from above satellite
View from above satellite

Ground track
Ground track

The orbit data is extracted from the following two-line orbital elements,

1 25394U 98043A   18343.86115667 -.00000039  00000-0  18688-5 0  9995
2 25394  98.6181 280.5045 0001830 132.7317 227.4016 14.24443787 61315
Epoch (UTC): 09 December 2018 20:40:03
Eccentricity: 0.0001830
inclination: 98.6181°
perigee height: 809 km
apogee height: 811 km
right ascension of ascending node: 280.5045°
argument of perigee: 132.7317°
revolutions per day: 14.24443787
mean anomaly at epoch: 227.4016°
orbit number at epoch: 6131

The dashed part of the orbit path shows where the satellite is in the earth's shadow,  

DLR